Home   Weather   Ibiza   Past weeks
Flag for Spain

Past Weather in Ibiza, Ibiza, Spain — Yesterday and Last 2 Weeks

Now
82 °F

Passing clouds.


Feels Like: 84 °F
Forecast: 84 / 69 °F
Wind: 9 mph from East

Location: Ibiza / Es Codola

Current Time: Jul 17, 2019 at 2:38:20 pm

Latest Report: Jul 17, 2019 at 1:30 pm


Visibility: N/A

Pressure: 29.95 "Hg

Humidity: 55%

Dew Point: 64 °F

Location of IbizaLocation

Past Weather in Ibiza — Graph

°F

Ibiza Temperature Yesterday

Maximum temperature yesterday: 84 °F (at 1:00 pm)
Minimum temperature yesterday: 75 °F (at 2:00 am)
Average temperature yesterday: 80 °F

High & Low Weather Summary for the Past Weeks

 TemperatureHumidityPressure
High91 °F (Jul 8, 10:30 am)89% (Jul 4, 1:30 am)30.04 "Hg (Jul 4, 1:30 am)
Low68 °F (Jul 10, 6:00 am)36% (Jul 8, 10:30 am)29.77 "Hg (Jul 9, 3:30 am)
Average80 °F69%29.93 "Hg
* Reported Jul 2 1:00 pm — Jul 17 1:00 pm, Ibiza. Weather by CustomWeather, © 2019

Note: Actual official high and low records may vary slightly from our data, if they occured in-between our weather recording intervals... More about our weather records

Advertising

Ibiza Weather History for the Previous 24 Hours

Scroll right to see more
 ConditionsComfort  
Time TempWeatherWind HumidityBarometerVisibility
1:00 pm
Wed, Jul 17
82 °FPassing clouds.8 mph55%29.98 "HgN/A
12:30 pm82 °FPassing clouds.9 mph58%29.98 "HgN/A
12:00 pm82 °FPassing clouds.10 mph58%29.98 "HgN/A
11:30 am82 °FPassing clouds.12 mph58%29.98 "HgN/A
11:00 am81 °FPassing clouds.12 mph62%29.98 "HgN/A
10:30 am81 °FPassing clouds.13 mph66%29.95 "HgN/A
10:00 am81 °FPassing clouds.12 mph62%29.98 "HgN/A
9:30 am81 °FPassing clouds.9 mph62%29.98 "HgN/A
9:00 am81 °FPassing clouds.7 mph62%29.95 "HgN/A
8:30 am79 °FPassing clouds.7 mph65%29.95 "HgN/A
8:00 am75 °FSunny.5 mph74%29.95 "Hg10 mi
7:30 am73 °FSunny.5 mph78%29.95 "Hg10 mi
7:00 am73 °FPassing clouds.3 mph74%29.95 "HgN/A
6:30 am75 °FClear.5 mph74%29.95 "Hg10 mi
6:00 am75 °FPassing clouds.5 mph74%29.95 "HgN/A
5:30 am75 °FPassing clouds.5 mph74%29.95 "HgN/A
5:00 am75 °FPassing clouds.5 mph74%29.95 "HgN/A
4:30 am77 °FClear.6 mph69%29.95 "Hg10 mi
4:00 am77 °FPassing clouds.6 mph69%29.95 "HgN/A
3:30 am77 °FPassing clouds.6 mph69%29.95 "HgN/A
3:00 am77 °FClear.6 mph69%29.95 "Hg10 mi
2:30 am77 °FPassing clouds.6 mph65%29.98 "HgN/A
2:00 am77 °FClear.6 mph65%29.98 "Hg10 mi
1:30 am77 °FClear.6 mph69%29.98 "Hg10 mi
1:00 am77 °FPassing clouds.6 mph65%29.98 "HgN/A
12:30 am79 °FPassing clouds.7 mph65%29.98 "HgN/A
12:00 am79 °FPassing clouds.7 mph65%29.98 "HgN/A
11:30 pm
Tue, Jul 16
79 °FPassing clouds.7 mph65%29.98 "HgN/A
11:00 pm79 °FPassing clouds.8 mph65%29.98 "HgN/A
10:30 pm79 °FPassing clouds.8 mph61%29.98 "HgN/A
10:00 pm79 °FPassing clouds.8 mph65%29.98 "HgN/A
9:30 pm79 °FPassing clouds.8 mph65%29.98 "HgN/A
9:00 pm79 °FPassing clouds.8 mph65%29.98 "HgN/A
8:30 pm81 °FPassing clouds.8 mph62%29.98 "HgN/A
8:00 pm81 °FPassing clouds.9 mph62%29.98 "HgN/A
7:30 pm82 °FPassing clouds.9 mph55%29.98 "HgN/A
7:00 pm82 °FPassing clouds.9 mph51%29.98 "HgN/A
6:30 pm82 °FPassing clouds.10 mph51%29.98 "HgN/A
6:00 pm82 °FPassing clouds.10 mph51%29.98 "HgN/A
5:30 pm84 °FPassing clouds.10 mph48%30.01 "HgN/A
5:00 pm84 °FPassing clouds.9 mph48%30.01 "HgN/A
4:30 pm82 °FPassing clouds.9 mph51%30.01 "HgN/A
4:00 pm84 °FPassing clouds.8 mph51%30.01 "HgN/A
3:30 pm84 °FPassing clouds.8 mph51%30.01 "HgN/A
3:00 pm84 °FPassing clouds.8 mph51%30.01 "HgN/A
2:30 pm84 °FPassing clouds.8 mph51%30.01 "HgN/A
2:00 pm84 °FPassing clouds.8 mph51%30.01 "HgN/A
Weather by CustomWeather, © 2019

See weather overview